Time,TemperatureF,DewpointF,PressureIn,WindDirection,WindDirectionDegrees,WindSpeedMPH,WindSpeedGustMPH,Humidity,HourlyPrecipIn,Conditions,Clouds,dailyrainin,SoftwareType,DateUTC
2013-05-22 00:05:00,68.9,56.6,29.82,North,0,0.0,0.0,65,0.00,,,0.00,Wunderground v.1.15,2013-05-22 05:05:00,
2013-05-22 00:10:00,68.9,56.6,29.82,North,0,0.0,0.0,65,0.00,,,0.00,Wunderground v.1.15,2013-05-22 05:10:00,
2013-05-22 00:20:00,68.8,57.0,29.82,North,0,0.0,0.0,66,0.00,,,0.00,Wunderground v.1.15,2013-05-22 05:20:00,
2013-05-22 00:25:00,68.8,56.6,29.82,North,0,0.0,0.0,65,0.00,,,0.00,Wunderground v.1.15,2013-05-22 05:25:00,
2013-05-22 00:35:00,68.6,56.4,29.83,North,0,0.0,0.0,65,0.00,,,0.00,Wunderground v.1.15,2013-05-22 05:35:00,
2013-05-22 00:40:00,68.4,56.2,29.83,North,0,0.0,0.0,65,0.00,,,0.00,Wunderground v.1.15,2013-05-22 05:40:00,
2013-05-22 00:50:00,68.3,56.5,29.83,North,0,0.0,0.0,66,0.00,,,0.00,Wunderground v.1.15,2013-05-22 05:50:00,
2013-05-22 00:55:00,68.1,56.3,29.83,North,0,0.0,0.0,66,0.00,,,0.00,Wunderground v.1.15,2013-05-22 05:55:00,
2013-05-22 01:05:00,67.9,56.1,29.83,North,0,0.0,0.0,66,0.00,,,0.00,Wunderground v.1.15,2013-05-22 06:05:00,
2013-05-22 01:10:00,67.9,55.7,29.82,North,0,0.0,0.0,65,0.00,,,0.00,Wunderground v.1.15,2013-05-22 06:10:00,
2013-05-22 01:20:00,67.9,56.1,29.83,North,0,0.0,0.0,66,0.00,,,0.00,Wunderground v.1.15,2013-05-22 06:20:00,
2013-05-22 01:25:00,67.8,55.6,29.83,North,0,0.0,0.0,65,0.00,,,0.00,Wunderground v.1.15,2013-05-22 06:25:00,
2013-05-22 01:35:00,67.6,55.4,29.82,North,0,0.0,0.0,65,0.00,,,0.00,Wunderground v.1.15,2013-05-22 06:35:00,
2013-05-22 01:40:00,67.4,55.6,29.82,North,0,0.0,0.0,66,0.00,,,0.00,Wunderground v.1.15,2013-05-22 06:40:00,
2013-05-22 01:50:00,67.1,55.4,29.82,North,0,0.0,0.0,66,0.00,,,0.00,Wunderground v.1.15,2013-05-22 06:50:00,
2013-05-22 01:55:00,66.8,55.5,29.81,North,0,0.0,0.0,67,0.00,,,0.00,Wunderground v.1.15,2013-05-22 06:55:00,
2013-05-22 02:05:00,66.3,55.4,29.81,North,0,0.0,0.0,68,0.00,,,0.00,Wunderground v.1.15,2013-05-22 07:05:00,
2013-05-22 02:10:00,66.0,55.5,29.82,North,0,0.0,0.0,69,0.00,,,0.00,Wunderground v.1.15,2013-05-22 07:10:00,
2013-05-22 02:20:00,65.2,55.2,29.81,North,0,0.0,0.0,70,0.00,,,0.00,Wunderground v.1.15,2013-05-22 07:20:00,
2013-05-22 02:25:00,64.8,55.6,29.81,North,0,0.0,0.0,72,0.00,,,0.00,Wunderground v.1.15,2013-05-22 07:25:00,
2013-05-22 02:35:00,64.5,55.7,29.81,North,0,0.0,0.0,73,0.00,,,0.00,Wunderground v.1.15,2013-05-22 07:35:00,
2013-05-22 02:40:00,64.2,55.7,29.81,North,0,0.0,0.0,74,0.00,,,0.00,Wunderground v.1.15,2013-05-22 07:40:00,
2013-05-22 02:50:00,64.0,55.9,29.81,North,0,0.0,0.0,75,0.00,,,0.00,Wunderground v.1.15,2013-05-22 07:50:00,
2013-05-22 02:55:00,63.9,55.8,29.81,North,0,0.0,0.0,75,0.00,,,0.00,Wunderground v.1.15,2013-05-22 07:55:00,
2013-05-22 03:05:00,63.4,55.7,29.81,North,0,0.0,0.0,76,0.00,,,0.00,Wunderground v.1.15,2013-05-22 08:05:00,
2013-05-22 03:10:00,63.2,55.9,29.81,North,0,0.0,0.0,77,0.00,,,0.00,Wunderground v.1.15,2013-05-22 08:10:00,
2013-05-22 03:20:00,62.7,55.4,29.81,North,0,0.0,0.0,77,0.00,,,0.00,Wunderground v.1.15,2013-05-22 08:20:00,
2013-05-22 03:25:00,62.3,55.4,29.81,North,0,0.0,0.0,78,0.00,,,0.00,Wunderground v.1.15,2013-05-22 08:25:00,
2013-05-22 03:35:00,61.6,55.0,29.81,North,0,0.0,0.0,79,0.00,,,0.00,Wunderground v.1.15,2013-05-22 08:35:00,
2013-05-22 03:40:00,61.3,55.1,29.81,North,0,0.0,0.0,80,0.00,,,0.00,Wunderground v.1.15,2013-05-22 08:40:00,
2013-05-22 03:50:00,60.7,54.8,29.80,North,0,0.0,0.0,81,0.00,,,0.00,Wunderground v.1.15,2013-05-22 08:50:00,
2013-05-22 03:55:00,60.2,54.7,29.80,North,0,0.0,0.0,82,0.00,,,0.00,Wunderground v.1.15,2013-05-22 08:55:00,
2013-05-22 04:05:00,59.8,54.6,29.81,North,0,0.0,0.0,83,0.00,,,0.00,Wunderground v.1.15,2013-05-22 09:05:00,
2013-05-22 04:10:00,59.6,54.4,29.81,North,0,0.0,0.0,83,0.00,,,0.00,Wunderground v.1.15,2013-05-22 09:10:00,
2013-05-22 04:20:00,59.2,54.4,29.80,North,0,0.0,0.0,84,0.00,,,0.00,Wunderground v.1.15,2013-05-22 09:20:00,
2013-05-22 04:25:00,58.9,54.4,29.80,North,0,0.0,0.0,85,0.00,,,0.00,Wunderground v.1.15,2013-05-22 09:25:00,
2013-05-22 04:35:00,58.7,54.2,29.80,North,0,0.0,0.0,85,0.00,,,0.00,Wunderground v.1.15,2013-05-22 09:35:00,
2013-05-22 04:40:00,58.6,54.4,29.80,North,0,0.0,0.0,86,0.00,,,0.00,Wunderground v.1.15,2013-05-22 09:40:00,
2013-05-22 04:50:00,58.3,54.1,29.80,North,0,0.0,0.0,86,0.00,,,0.00,Wunderground v.1.15,2013-05-22 09:50:00,
2013-05-22 04:55:00,58.0,53.8,29.80,North,0,0.0,0.0,86,0.00,,,0.00,Wunderground v.1.15,2013-05-22 09:55:00,
2013-05-22 05:05:00,57.8,54.0,29.80,North,0,0.0,0.0,87,0.00,,,0.00,Wunderground v.1.15,2013-05-22 10:05:00,
2013-05-22 05:10:00,57.6,53.8,29.80,North,0,0.0,0.0,87,0.00,,,0.00,Wunderground v.1.15,2013-05-22 10:10:00,
2013-05-22 05:20:00,57.3,53.5,29.81,North,0,0.0,0.0,87,0.00,,,0.00,Wunderground v.1.15,2013-05-22 10:20:00,
2013-05-22 05:25:00,57.2,53.7,29.81,North,0,0.0,0.0,88,0.00,,,0.00,Wunderground v.1.15,2013-05-22 10:25:00,
2013-05-22 05:35:00,56.9,53.4,29.81,North,0,0.0,0.0,88,0.00,,,0.00,Wunderground v.1.15,2013-05-22 10:35:00,
2013-05-22 05:40:00,56.7,53.5,29.81,North,0,0.0,0.0,89,0.00,,,0.00,Wunderground v.1.15,2013-05-22 10:40:00,
2013-05-22 05:50:00,56.6,53.4,29.81,North,0,0.0,0.0,89,0.00,,,0.00,Wunderground v.1.15,2013-05-22 10:50:00,
2013-05-22 05:55:00,56.5,53.3,29.81,North,0,0.0,0.0,89,0.00,,,0.00,Wunderground v.1.15,2013-05-22 10:55:00,
2013-05-22 06:05:00,56.3,53.1,29.82,North,0,0.0,0.0,89,0.00,,,0.00,Wunderground v.1.15,2013-05-22 11:05:00,
2013-05-22 06:10:00,56.3,53.1,29.81,North,0,0.0,0.0,89,0.00,,,0.00,Wunderground v.1.15,2013-05-22 11:10:00,
2013-05-22 06:20:00,56.2,53.3,29.82,North,0,0.0,0.0,90,0.00,,,0.00,Wunderground v.1.15,2013-05-22 11:20:00,
2013-05-22 06:25:00,56.0,53.1,29.82,North,0,0.0,0.0,90,0.00,,,0.00,Wunderground v.1.15,2013-05-22 11:25:00,
2013-05-22 06:35:00,56.0,53.1,29.82,North,0,0.0,0.0,90,0.00,,,0.00,Wunderground v.1.15,2013-05-22 11:35:00,
2013-05-22 06:40:00,56.2,53.6,29.82,North,0,0.0,0.0,91,0.00,,,0.00,Wunderground v.1.15,2013-05-22 11:40:00,
2013-05-22 06:50:00,56.2,53.6,29.82,North,0,0.0,0.0,91,0.00,,,0.00,Wunderground v.1.15,2013-05-22 11:50:00,
2013-05-22 06:55:00,56.3,53.7,29.83,North,7,0.0,0.0,91,0.00,,,0.00,Wunderground v.1.15,2013-05-22 11:55:00,
2013-05-22 07:05:00,56.5,53.9,29.83,North,353,0.0,0.0,91,0.00,,,0.00,Wunderground v.1.15,2013-05-22 12:05:00,
2013-05-22 07:10:00,56.5,54.2,29.83,North,353,0.0,0.0,92,0.00,,,0.00,Wunderground v.1.15,2013-05-22 12:10:00,
2013-05-22 07:20:00,56.9,54.6,29.84,North,0,0.0,0.0,92,0.00,,,0.00,Wunderground v.1.15,2013-05-22 12:20:00,
2013-05-22 07:25:00,57.5,55.5,29.84,NE,48,0.0,0.0,93,0.00,,,0.00,Wunderground v.1.15,2013-05-22 12:25:00,
2013-05-22 07:35:00,58.6,56.3,29.84,NNW,343,0.0,0.0,92,0.00,,,0.00,Wunderground v.1.15,2013-05-22 12:35:00,
2013-05-22 07:40:00,59.0,56.1,29.84,NW,319,0.0,0.0,90,0.00,,,0.00,Wunderground v.1.15,2013-05-22 12:40:00,
2013-05-22 07:50:00,59.8,56.6,29.83,NW,320,0.0,0.0,89,0.00,,,0.00,Wunderground v.1.15,2013-05-22 12:50:00,
2013-05-22 07:55:00,60.2,56.6,29.83,NW,320,0.0,0.0,88,0.00,,,0.00,Wunderground v.1.15,2013-05-22 12:55:00,
2013-05-22 08:05:00,61.0,57.1,29.85,NW,320,0.0,0.0,87,0.00,,,0.00,Wunderground v.1.15,2013-05-22 13:05:00,
2013-05-22 08:10:00,61.5,56.6,29.85,WNW,298,0.0,0.0,84,0.00,,,0.00,Wunderground v.1.15,2013-05-22 13:10:00,
2013-05-22 08:20:00,63.2,55.5,29.85,WNW,292,0.0,0.0,76,0.00,,,0.00,Wunderground v.1.15,2013-05-22 13:20:00,
2013-05-22 08:25:00,64.7,55.1,29.85,WNW,292,0.0,0.0,71,0.00,,,0.00,Wunderground v.1.15,2013-05-22 13:25:00,
2013-05-22 08:35:00,66.8,55.5,29.85,WNW,294,0.0,0.0,67,0.00,,,0.00,Wunderground v.1.15,2013-05-22 13:35:00,
2013-05-22 08:40:00,67.8,54.7,29.85,NE,47,0.0,0.0,63,0.00,,,0.00,Wunderground v.1.15,2013-05-22 13:40:00,
2013-05-22 08:50:00,69.8,54.4,29.85,NE,48,0.0,0.0,58,0.00,,,0.00,Wunderground v.1.15,2013-05-22 13:50:00,
2013-05-22 08:55:00,70.8,54.8,29.86,NE,48,0.0,0.0,57,0.00,,,0.00,Wunderground v.1.15,2013-05-22 13:55:00,
2013-05-22 09:05:00,72.5,54.9,29.86,NE,51,1.0,1.0,54,0.00,,,0.00,Wunderground v.1.15,2013-05-22 14:05:00,
2013-05-22 09:10:00,73.3,54.6,29.86,NE,54,1.0,2.0,52,0.00,,,0.00,Wunderground v.1.15,2013-05-22 14:10:00,
2013-05-22 09:20:00,74.2,54.9,29.86,NE,52,1.0,2.0,51,0.00,,,0.00,Wunderground v.1.15,2013-05-22 14:20:00,
2013-05-22 09:25:00,74.4,55.1,29.86,SE,145,1.0,2.0,51,0.00,,,0.00,Wunderground v.1.15,2013-05-22 14:25:00,
2013-05-22 09:35:00,75.6,55.6,29.87,SE,141,1.0,1.0,50,0.00,,,0.00,Wunderground v.1.15,2013-05-22 14:35:00,
2013-05-22 09:40:00,76.0,56.0,29.87,SE,140,1.0,1.0,50,0.00,,,0.00,Wunderground v.1.15,2013-05-22 14:40:00,
2013-05-22 09:50:00,76.7,56.1,29.87,SE,130,1.0,2.0,49,0.00,,,0.00,Wunderground v.1.15,2013-05-22 14:50:00,
2013-05-22 09:55:00,77.0,56.9,29.87,SE,126,1.0,2.0,50,0.00,,,0.00,Wunderground v.1.15,2013-05-22 14:55:00,
2013-05-22 10:05:00,77.2,57.1,29.87,ESE,119,2.0,2.0,50,0.00,,,0.00,Wunderground v.1.15,2013-05-22 15:05:00,
2013-05-22 10:10:00,77.6,56.4,29.87,ESE,119,1.0,2.0,48,0.00,,,0.00,Wunderground v.1.15,2013-05-22 15:10:00,
2013-05-22 10:20:00,78.6,56.1,29.87,ESE,116,2.0,2.0,46,0.00,,,0.00,Wunderground v.1.15,2013-05-22 15:20:00,
2013-05-22 10:25:00,79.0,55.8,29.88,ESE,114,1.0,2.0,45,0.00,,,0.00,Wunderground v.1.15,2013-05-22 15:25:00,
2013-05-22 10:35:00,79.6,55.8,29.87,ESE,110,2.0,3.0,44,0.00,,,0.00,Wunderground v.1.15,2013-05-22 15:35:00,
2013-05-22 10:40:00,79.9,55.4,29.87,ESE,109,1.0,2.0,43,0.00,,,0.00,Wunderground v.1.15,2013-05-22 15:40:00,
2013-05-22 10:50:00,80.3,55.1,29.87,ESE,107,2.0,2.0,42,0.00,,,0.00,Wunderground v.1.15,2013-05-22 15:50:00,
2013-05-22 10:55:00,80.5,55.3,29.87,ESE,107,2.0,6.0,42,0.00,,,0.00,Wunderground v.1.15,2013-05-22 15:55:00,
2013-05-22 11:05:00,81.2,54.6,29.87,ESE,103,1.0,3.0,40,0.00,,,0.00,Wunderground v.1.15,2013-05-22 16:05:00,
2013-05-22 11:10:00,81.8,55.1,29.87,ESE,103,1.0,1.0,40,0.00,,,0.00,Wunderground v.1.15,2013-05-22 16:10:00,
2013-05-22 11:20:00,82.8,54.6,29.87,ESE,103,1.0,1.0,38,0.00,,,0.00,Wunderground v.1.15,2013-05-22 16:20:00,
2013-05-22 11:25:00,83.0,50.9,29.87,ESE,103,1.0,1.0,33,0.00,,,0.00,Wunderground v.1.15,2013-05-22 16:25:00,
2013-05-22 11:35:00,83.2,52.7,29.86,ESE,102,1.0,2.0,35,0.00,,,0.00,Wunderground v.1.15,2013-05-22 16:35:00,
2013-05-22 11:40:00,83.8,53.2,29.86,ESE,102,0.0,1.0,35,0.00,,,0.00,Wunderground v.1.15,2013-05-22 16:40:00,
2013-05-22 11:50:00,84.7,52.4,29.86,ESE,102,1.0,1.0,33,0.00,,,0.00,Wunderground v.1.15,2013-05-22 16:50:00,
2013-05-22 11:55:00,84.9,52.6,29.86,East,100,1.0,1.0,33,0.00,,,0.00,Wunderground v.1.15,2013-05-22 16:55:00,
2013-05-22 12:05:00,85.3,52.1,29.86,East,100,0.0,1.0,32,0.00,,,0.00,Wunderground v.1.15,2013-05-22 17:05:00,
2013-05-22 12:10:00,85.5,55.5,29.86,East,100,0.0,0.0,36,0.00,,,0.00,Wunderground v.1.15,2013-05-22 17:10:00,
2013-05-22 12:20:00,86.1,52.8,29.86,East,100,1.0,1.0,32,0.00,,,0.00,Wunderground v.1.15,2013-05-22 17:20:00,
2013-05-22 12:25:00,86.3,51.2,29.86,East,100,0.0,1.0,30,0.00,,,0.00,Wunderground v.1.15,2013-05-22 17:25:00,
2013-05-22 12:35:00,86.7,53.3,29.86,East,100,0.0,1.0,32,0.00,,,0.00,Wunderground v.1.15,2013-05-22 17:35:00,
2013-05-22 12:40:00,87.0,51.8,29.86,East,100,0.0,0.0,30,0.00,,,0.00,Wunderground v.1.15,2013-05-22 17:40:00,
2013-05-22 12:50:00,87.6,50.5,29.86,East,100,0.0,0.0,28,0.00,,,0.00,Wunderground v.1.15,2013-05-22 17:50:00,
2013-05-22 12:55:00,88.0,52.7,29.86,East,100,0.0,0.0,30,0.00,,,0.00,Wunderground v.1.15,2013-05-22 17:55:00,
2013-05-22 13:05:00,87.6,54.1,29.85,East,100,0.0,0.0,32,0.00,,,0.00,Wunderground v.1.15,2013-05-22 18:05:00,
2013-05-22 13:10:00,87.6,52.3,29.85,East,100,0.0,0.0,30,0.00,,,0.00,Wunderground v.1.15,2013-05-22 18:10:00,
2013-05-22 13:20:00,87.4,53.9,29.85,East,96,0.0,0.0,32,0.00,,,0.00,Wunderground v.1.15,2013-05-22 18:20:00,
2013-05-22 13:25:00,88.0,52.7,29.85,East,96,0.0,1.0,30,0.00,,,0.00,Wunderground v.1.15,2013-05-22 18:25:00,
2013-05-22 13:35:00,89.3,52.9,29.85,East,96,1.0,1.0,29,0.00,,,0.00,Wunderground v.1.15,2013-05-22 18:35:00,
2013-05-22 13:40:00,89.9,56.1,29.84,East,96,0.0,0.0,32,0.00,,,0.00,Wunderground v.1.15,2013-05-22 18:40:00,
2013-05-22 13:50:00,90.3,52.8,29.83,East,96,0.0,0.0,28,0.00,,,0.00,Wunderground v.1.15,2013-05-22 18:50:00,
2013-05-22 13:55:00,90.5,54.8,29.83,East,96,1.0,1.0,30,0.00,,,0.00,Wunderground v.1.15,2013-05-22 18:55:00,
2013-05-22 14:05:00,91.8,54.1,29.83,East,100,0.0,0.0,28,0.00,,,0.00,Wunderground v.1.15,2013-05-22 19:05:00,
2013-05-22 14:10:00,91.8,54.1,29.83,East,100,0.0,2.0,28,0.00,,,0.00,Wunderground v.1.15,2013-05-22 19:10:00,
2013-05-22 14:20:00,91.6,53.9,29.83,ESE,102,1.0,1.0,28,0.00,,,0.00,Wunderground v.1.15,2013-05-22 19:20:00,
2013-05-22 14:25:00,91.8,53.1,29.83,ESE,103,1.0,1.0,27,0.00,,,0.00,Wunderground v.1.15,2013-05-22 19:25:00,
2013-05-22 14:35:00,91.4,54.7,29.82,ESE,102,1.0,1.0,29,0.00,,,0.00,Wunderground v.1.15,2013-05-22 19:35:00,
2013-05-22 14:40:00,91.6,54.8,29.82,ESE,106,2.0,3.0,29,0.00,,,0.00,Wunderground v.1.15,2013-05-22 19:40:00,
2013-05-22 14:50:00,91.4,54.7,29.82,ESE,106,1.0,1.0,29,0.00,,,0.00,Wunderground v.1.15,2013-05-22 19:50:00,
2013-05-22 14:55:00,91.4,54.7,29.81,ESE,104,1.0,8.0,29,0.00,,,0.00,Wunderground v.1.15,2013-05-22 19:55:00,
2013-05-22 15:05:00,91.8,56.9,29.80,ESE,113,2.0,3.0,31,0.00,,,0.00,Wunderground v.1.15,2013-05-22 20:05:00,
2013-05-22 15:10:00,92.3,55.4,29.80,ESE,113,1.0,1.0,29,0.00,,,0.00,Wunderground v.1.15,2013-05-22 20:10:00,
2013-05-22 15:20:00,92.9,56.0,29.80,ESE,112,1.0,1.0,29,0.00,,,0.00,Wunderground v.1.15,2013-05-22 20:20:00,
2013-05-22 15:25:00,92.9,56.9,29.79,ESE,107,2.0,3.0,30,0.00,,,0.00,Wunderground v.1.15,2013-05-22 20:25:00,
2013-05-22 15:35:00,93.4,55.4,29.79,ESE,109,1.0,2.0,28,0.00,,,0.00,Wunderground v.1.15,2013-05-22 20:35:00,
2013-05-22 15:40:00,93.8,55.8,29.78,ESE,110,1.0,1.0,28,0.00,,,0.00,Wunderground v.1.15,2013-05-22 20:40:00,
2013-05-22 15:50:00,93.6,57.5,29.78,ESE,110,1.0,1.0,30,0.00,,,0.00,Wunderground v.1.15,2013-05-22 20:50:00,
2013-05-22 15:55:00,93.6,57.5,29.78,ESE,110,1.0,1.0,30,0.00,,,0.00,Wunderground v.1.15,2013-05-22 20:55:00,
2013-05-22 16:05:00,93.6,56.6,29.77,ESE,110,1.0,1.0,29,0.00,,,0.00,Wunderground v.1.15,2013-05-22 21:05:00,
2013-05-22 16:10:00,93.6,55.6,29.77,ESE,112,1.0,1.0,28,0.00,,,0.00,Wunderground v.1.15,2013-05-22 21:10:00,
2013-05-22 16:20:00,93.4,57.3,29.77,ESE,112,1.0,1.0,30,0.00,,,0.00,Wunderground v.1.15,2013-05-22 21:20:00,
2013-05-22 16:25:00,92.9,57.8,29.77,ESE,103,1.0,1.0,31,0.00,,,0.00,Wunderground v.1.15,2013-05-22 21:25:00,
2013-05-22 16:35:00,91.8,56.9,29.76,ESE,103,1.0,2.0,31,0.00,,,0.00,Wunderground v.1.15,2013-05-22 21:35:00,
2013-05-22 16:40:00,91.4,56.5,29.76,ESE,103,0.0,0.0,31,0.00,,,0.00,Wunderground v.1.15,2013-05-22 21:40:00,
2013-05-22 16:50:00,91.2,57.2,29.76,ESE,104,1.0,1.0,32,0.00,,,0.00,Wunderground v.1.15,2013-05-22 21:50:00,
2013-05-22 16:55:00,91.2,59.7,29.76,ESE,104,1.0,7.0,35,0.00,,,0.00,Wunderground v.1.15,2013-05-22 21:55:00,
2013-05-22 17:05:00,90.7,57.6,29.75,ESE,102,2.0,2.0,33,0.00,,,0.00,Wunderground v.1.15,2013-05-22 22:05:00,
2013-05-22 17:10:00,90.5,55.7,29.76,ESE,109,2.0,4.0,31,0.00,,,0.00,Wunderground v.1.15,2013-05-22 22:10:00,
2013-05-22 17:20:00,90.1,58.8,29.75,ESE,110,1.0,1.0,35,0.00,,,0.00,Wunderground v.1.15,2013-05-22 22:20:00,
2013-05-22 17:25:00,90.1,59.5,29.75,ESE,110,1.0,1.0,36,0.00,,,0.00,Wunderground v.1.15,2013-05-22 22:25:00,
2013-05-22 17:35:00,89.7,61.5,29.75,ESE,109,1.0,5.0,39,0.00,,,0.00,Wunderground v.1.15,2013-05-22 22:35:00,
2013-05-22 17:40:00,89.7,62.9,29.74,ESE,109,2.0,3.0,41,0.00,,,0.00,Wunderground v.1.15,2013-05-22 22:40:00,
2013-05-22 17:50:00,89.7,64.9,29.74,ESE,110,1.0,5.0,44,0.00,,,0.00,Wunderground v.1.15,2013-05-22 22:50:00,
2013-05-22 17:55:00,89.0,64.9,29.75,ESE,110,2.0,6.0,45,0.00,,,0.00,Wunderground v.1.15,2013-05-22 22:55:00,
2013-05-22 18:05:00,88.4,64.4,29.75,ESE,110,2.0,3.0,45,0.00,,,0.00,Wunderground v.1.15,2013-05-22 23:05:00,
2013-05-22 18:10:00,88.2,65.4,29.75,ESE,112,1.0,1.0,47,0.00,,,0.00,Wunderground v.1.15,2013-05-22 23:10:00,
2013-05-22 18:20:00,88.0,67.0,29.75,ESE,113,2.0,2.0,50,0.00,,,0.00,Wunderground v.1.15,2013-05-22 23:20:00,
2013-05-22 18:25:00,87.8,66.8,29.75,ESE,113,2.0,2.0,50,0.00,,,0.00,Wunderground v.1.15,2013-05-22 23:25:00,
2013-05-22 18:35:00,87.4,67.1,29.75,ESE,114,2.0,3.0,51,0.00,,,0.00,Wunderground v.1.15,2013-05-22 23:35:00,
2013-05-22 18:40:00,87.2,66.9,29.75,ESE,114,2.0,5.0,51,0.00,,,0.00,Wunderground v.1.15,2013-05-22 23:40:00,
2013-05-22 18:50:00,86.7,66.4,29.75,ESE,114,2.0,2.0,51,0.00,,,0.00,Wunderground v.1.15,2013-05-22 23:50:00,
2013-05-22 18:55:00,86.7,67.0,29.75,ESE,114,2.0,2.0,52,0.00,,,0.00,Wunderground v.1.15,2013-05-22 23:55:00,
2013-05-22 19:05:00,86.3,66.6,29.74,ESE,113,2.0,2.0,52,0.00,,,0.00,Wunderground v.1.15,2013-05-23 00:05:00,
2013-05-22 19:10:00,86.1,66.4,29.74,ESE,113,2.0,2.0,52,0.00,,,0.00,Wunderground v.1.15,2013-05-23 00:10:00,
2013-05-22 19:20:00,85.7,65.5,29.74,ESE,106,2.0,2.0,51,0.00,,,0.00,Wunderground v.1.15,2013-05-23 00:20:00,
2013-05-22 19:25:00,85.5,65.9,29.75,SSW,193,1.0,2.0,52,0.00,,,0.00,Wunderground v.1.15,2013-05-23 00:25:00,
2013-05-22 19:35:00,85.1,66.6,29.74,South,186,0.0,2.0,54,0.00,,,0.00,Wunderground v.1.15,2013-05-23 00:35:00,
2013-05-22 19:40:00,84.9,66.4,29.74,South,178,2.0,3.0,54,0.00,,,0.00,Wunderground v.1.15,2013-05-23 00:40:00,
2013-05-22 19:50:00,84.5,67.6,29.75,South,176,1.0,1.0,57,0.00,,,0.00,Wunderground v.1.15,2013-05-23 00:50:00,
2013-05-22 19:55:00,84.1,67.2,29.75,South,176,1.0,3.0,57,0.00,,,0.00,Wunderground v.1.15,2013-05-23 00:55:00,
2013-05-22 20:05:00,83.8,66.9,29.75,South,175,1.0,5.0,57,0.00,,,0.00,Wunderground v.1.15,2013-05-23 01:05:00,
2013-05-22 20:10:00,83.6,67.3,29.75,South,174,1.0,5.0,58,0.00,,,0.00,Wunderground v.1.15,2013-05-23 01:10:00,
2013-05-22 20:20:00,83.0,67.2,29.75,South,174,1.0,1.0,59,0.00,,,0.00,Wunderground v.1.15,2013-05-23 01:20:00,
2013-05-22 20:25:00,82.8,67.5,29.76,South,174,0.0,1.0,60,0.00,,,0.00,Wunderground v.1.15,2013-05-23 01:25:00,
2013-05-22 20:35:00,82.2,67.4,29.76,South,169,2.0,5.0,61,0.00,,,0.00,Wunderground v.1.15,2013-05-23 01:35:00,
2013-05-22 20:40:00,82.0,67.7,29.76,South,169,2.0,2.0,62,0.00,,,0.00,Wunderground v.1.15,2013-05-23 01:40:00,
2013-05-22 20:50:00,81.6,67.3,29.77,South,169,2.0,2.0,62,0.00,,,0.00,Wunderground v.1.15,2013-05-23 01:50:00,
2013-05-22 20:55:00,81.6,67.8,29.77,SSE,168,1.0,3.0,63,0.00,,,0.00,Wunderground v.1.15,2013-05-23 01:55:00,
2013-05-22 21:05:00,81.2,67.9,29.77,SSE,168,1.0,4.0,64,0.00,,,0.00,Wunderground v.1.15,2013-05-23 02:05:00,
2013-05-22 21:10:00,80.9,68.0,29.77,SSE,168,0.0,0.0,65,0.00,,,0.00,Wunderground v.1.15,2013-05-23 02:10:00,
2013-05-22 21:20:00,80.3,67.9,29.78,SSE,168,0.0,3.0,66,0.00,,,0.00,Wunderground v.1.15,2013-05-23 02:20:00,
2013-05-22 21:25:00,80.1,68.2,29.78,SSE,168,2.0,3.0,67,0.00,,,0.00,Wunderground v.1.15,2013-05-23 02:25:00,
2013-05-22 21:35:00,80.1,68.6,29.79,SSE,168,2.0,2.0,68,0.00,,,0.00,Wunderground v.1.15,2013-05-23 02:35:00,
2013-05-22 21:40:00,80.1,68.6,29.79,SSE,168,2.0,2.0,68,0.00,,,0.00,Wunderground v.1.15,2013-05-23 02:40:00,
2013-05-22 21:50:00,79.9,68.8,29.80,SSE,168,1.0,1.0,69,0.00,,,0.00,Wunderground v.1.15,2013-05-23 02:50:00,
2013-05-22 21:55:00,79.9,69.2,29.80,SSE,167,2.0,2.0,70,0.00,,,0.00,Wunderground v.1.15,2013-05-23 02:55:00,
2013-05-22 22:05:00,79.8,69.6,29.80,SSE,167,1.0,3.0,71,0.00,,,0.00,Wunderground v.1.15,2013-05-23 03:05:00,
2013-05-22 22:10:00,79.6,69.4,29.80,SSE,167,1.0,3.0,71,0.00,,,0.00,Wunderground v.1.15,2013-05-23 03:10:00,
2013-05-22 22:20:00,79.4,69.2,29.81,SSE,167,1.0,1.0,71,0.00,,,0.00,Wunderground v.1.15,2013-05-23 03:20:00,
2013-05-22 22:25:00,79.2,69.4,29.81,SSE,167,1.0,1.0,72,0.00,,,0.00,Wunderground v.1.15,2013-05-23 03:25:00,
2013-05-22 22:35:00,78.8,69.4,29.81,SSE,167,1.0,1.0,73,0.00,,,0.00,Wunderground v.1.15,2013-05-23 03:35:00,
2013-05-22 22:40:00,78.6,69.2,29.82,SSE,167,0.0,0.0,73,0.00,,,0.00,Wunderground v.1.15,2013-05-23 03:40:00,
2013-05-22 22:50:00,78.5,69.5,29.82,SSE,167,1.0,1.0,74,0.00,,,0.00,Wunderground v.1.15,2013-05-23 03:50:00,
2013-05-22 22:55:00,78.5,69.5,29.83,SSE,167,1.0,1.0,74,0.00,,,0.00,Wunderground v.1.15,2013-05-23 03:55:00,
2013-05-22 23:05:00,78.3,69.7,29.82,SSE,167,2.0,2.0,75,0.00,,,0.00,Wunderground v.1.15,2013-05-23 04:05:00,
2013-05-22 23:10:00,78.3,69.7,29.82,SSE,167,2.0,2.0,75,0.00,,,0.00,Wunderground v.1.15,2013-05-23 04:10:00,
2013-05-22 23:15:00,78.3,69.7,29.82,SSE,167,2.0,2.0,75,0.00,,,0.00,Wunderground v.1.15,2013-05-23 04:15:00,
2013-05-22 23:20:00,78.3,69.7,29.82,SSE,167,3.0,3.0,75,0.00,,,0.00,Wunderground v.1.15,2013-05-23 04:20:00,
2013-05-22 23:25:00,78.3,69.7,29.83,SSE,164,3.0,3.0,75,0.00,,,0.00,Wunderground v.1.15,2013-05-23 04:25:00,
2013-05-22 23:30:00,78.3,69.7,29.83,SSE,162,3.0,3.0,75,0.00,,,0.00,Wunderground v.1.15,2013-05-23 04:30:00,
2013-05-22 23:35:00,78.3,70.1,29.83,SSE,158,3.0,5.0,76,0.00,,,0.00,Wunderground v.1.15,2013-05-23 04:35:00,
2013-05-22 23:40:00,78.3,70.1,29.83,SSE,152,5.0,5.0,76,0.00,,,0.00,Wunderground v.1.15,2013-05-23 04:40:00,
2013-05-22 23:50:00,77.9,70.1,29.83,SSE,152,3.0,8.0,77,0.00,,,0.00,Wunderground v.1.15,2013-05-23 04:50:00,
2013-05-22 23:55:00,77.7,69.9,29.83,SSE,151,3.0,8.0,77,0.00,,,0.00,Wunderground v.1.15,2013-05-23 04:55:00,